Lapse_Rate
7.3 7.5 7.4 7.3 7.4 7.7 7.7 6.3 5.5 5.0 3.5 2.2 1.5 1.2 1.2 0.7 0.6 5.0 5.4 7.0 5.7 4.2 2.2 8.7 8.3 9.2 9.2 8.5 8.7 8.5 6.5 6.5 6.5 6.5 6.5 7.5 6.6 7.9 8.3 7.7 8.0 8.1 8.1 8.7 9.1
8.1 8.2 8.2 8.0 7.7 7.4 7.0 5.1 5.0 4.9 4.6 3.1 2.0 1.5 1.2 0.9 2.6 4.5 5.7 2.7 2.1 2.5 8.2 8.8 8.5 8.8 8.4 8.0 8.1 6.9 6.5 6.5 6.5 6.5 6.5 7.2 7.2 7.6 7.3 7.3 7.3 7.7 8.5 8.9 9.1
8.6 9.0 8.8 8.6 8.0 7.5 5.6 4.3 4.2 4.0 4.2 3.6 2.6 2.0 1.5 1.7 6.1 8.3 3.5 1.7 1.8 3.2 9.4 9.3 9.0 8.6 7.5 7.9 7.5 7.0 6.5 6.5 6.8 7.3 7.5 7.2 7.2 7.9 7.2 6.5 7.5 7.3 7.7 8.5 8.9
8.6 8.4 9.2 9.0 9.0 8.3 5.6 3.6 3.4 3.7 3.5 3.7 3.1 2.2 1.9 4.7 6.5 8.8 2.7 2.6 2.1 6.6 9.2 8.9 8.6 7.6 6.7 6.5 7.6 6.5 6.9 7.0 7.2 7.5 7.4 6.7 7.7 7.1 7.3 7.2 8.3 8.3 8.2 8.4 8.2
8.3 8.7 8.4 8.5 7.8 7.3 5.8 3.2 2.4 2.4 2.8 3.0 3.1 2.9 3.8 7.7 7.9 6.4 1.9 2.0 5.4 7.4 8.9 8.5 7.9 7.6 6.5 6.8 7.0 6.5 6.5 7.3 7.5 7.6 7.6 7.7 7.1 6.8 7.1 8.1 8.2 8.6 8.7 8.5 7.9
9.2 8.9 8.6 8.8 7.5 6.5 3.6 2.9 2.3 1.8 2.0 2.5 2.8 3.3 6.2 6.7 6.9 6.1 6.3 6.4 7.8 8.9 8.9 8.7 8.1 8.2 7.3 6.8 6.6 7.1 7.0 7.1 7.5 7.4 7.5 6.8 7.0 7.4 7.5 8.0 8.0 8.2 8.2 8.5 8.1
8.8 8.6 8.9 9.2 8.5 5.6 3.1 2.4 2.1 1.8 1.8 2.2 2.6 4.2 7.1 7.7 7.5 6.2 6.7 8.1 8.6 9.2 8.6 9.0 8.8 8.1 7.8 6.5 7.7 7.3 6.5 6.5 6.9 7.2 6.5 7.5 6.5 6.5 7.9 7.8 7.3 7.5 7.9 7.9 6.5
8.8 8.7 8.6 6.7 6.1 5.4 3.0 2.3 2.1 2.4 2.5 2.6 3.0 6.9 7.8 6.9 6.1 6.7 7.9 7.7 7.6 8.6 9.1 9.2 9.0 8.2 7.6 7.9 7.1 6.5 6.5 6.5 6.5 6.8 7.1 6.9 6.5 6.6 8.1 7.6 7.3 7.5 7.6 7.7 7.1
8.9 9.2 8.5 7.0 4.4 3.4 3.1 2.9 2.7 3.3 4.0 3.6 6.3 8.5 7.3 6.1 6.6 7.8 8.3 8.6 8.2 8.7 9.0 8.4 8.7 7.6 7.5 6.5 6.5 6.5 6.5 6.5 6.5 6.9 6.5 6.5 6.5 6.9 8.0 7.7 7.4 7.5 7.7 7.9 8.3
9.2 8.7 7.5 5.6 4.6 3.6 3.5 3.8 5.3 4.9 6.9 8.1 9.2 7.7 8.0 7.8 8.9 8.7 8.5 9.3 8.6 8.5 8.1 7.9 7.7 6.5 6.5 6.5 6.5 6.5 6.5 6.5 6.5 6.5 6.5 6.5 6.5 6.5 7.7 7.5 7.5 7.6 7.8 8.1 8.5
9.2 8.1 5.2 4.3 4.6 4.7 4.5 9.5 8.6 8.2 8.7 7.7 7.7 7.7 8.0 9.0 8.2 8.7 9.0 8.8 8.6 8.0 6.5 7.2 6.5 6.5 6.5 6.5 6.5 6.5 6.5 6.5 6.5 6.5 6.5 6.5 6.5 6.5 7.3 7.4 7.5 7.6 8.0 8.3 8.5
9.0 9.1 8.0 4.2 4.2 4.7 7.5 8.6 8.4 8.0 7.1 8.4 8.4 8.4 8.8 9.0 7.6 8.4 9.3 7.7 7.2 6.5 6.4 6.5 6.5 6.5 6.5 6.5 6.5 6.5 6.5 6.5 6.5 6.5 6.5 6.5 6.5 6.5 6.9 7.2 7.6 7.8 8.0 8.2 8.5
9.2 9.2 8.9 4.7 4.4 6.0 7.0 7.9 7.0 7.6 6.9 7.4 8.2 8.0 8.2 8.6 7.4 7.6 8.6 8.0 6.5 6.5 6.5 6.5 6.5 6.5 6.5 6.5 6.5 6.5 6.5 6.5 6.5 6.5 6.5 6.5 6.5 6.5 6.6 7.3 7.7 8.0 8.2 8.4 8.4
9.3 9.2 8.3 5.8 7.1 7.6 8.4 7.4 6.8 5.5 6.5 6.5 6.8 7.6 8.2 8.3 6.8 8.7 8.9 7.9 6.6 6.5 6.5 6.5 6.6 6.5 6.5 6.5 6.5 6.5 6.5 6.5 6.5 6.5 6.5 6.5 6.5 6.5 6.5 6.5 6.7 7.5 8.0 8.2 8.4
9.2 8.6 7.2 6.6 7.7 8.4 8.6 6.5 6.5 6.9 6.5 6.5 6.8 9.0 8.3 7.3 7.3 7.5 8.9 8.0 6.5 6.5 6.5 6.5 6.5 6.5 6.5 6.5 6.5 6.5 6.5 6.5 6.5 6.5 6.5 6.5 6.5 6.5 6.5 6.5 6.5 7.2 7.8 8.2 8.4
8.0 6.8 6.0 8.4 8.5 8.0 6.3 5.7 7.1 6.5 6.5 6.5 6.8 6.5 6.5 7.0 7.0 7.6 7.6 8.4 7.9 6.5 6.5 6.5 7.0 6.5 6.5 6.5 6.5 6.5 6.5 6.5 6.5 6.5 6.5 6.5 6.5 6.5 6.5 6.5 6.5 7.1 7.8 8.1 8.5
6.4 5.8 7.2 7.7 8.8 6.7 5.9 7.8 6.5 6.5 6.5 6.5 6.5 6.5 6.5 6.5 6.5 6.5 6.5 6.5 6.5 6.5 6.5 6.5 6.5 6.5 6.6 6.5 6.5 6.5 6.5 6.5 6.5 6.5 6.5 6.5 6.5 6.5 6.5 6.5 6.5 6.7 7.6 8.1 8.4
5.8 5.7 6.7 8.4 6.8 6.1 7.3 6.7 6.5 6.5 6.5 6.5 6.5 6.5 6.5 6.5 6.5 6.5 6.5 6.5 6.5 6.5 6.5 6.5 6.5 6.5 6.5 6.5 6.5 6.5 6.5 6.5 6.5 6.5 6.5 6.5 6.5 6.5 6.5 7.0 7.4 7.6 7.7 8.0 8.3
6.0 8.0 9.6 8.3 6.4 7.1 7.9 6.5 6.5 6.5 6.5 6.5 6.5 6.5 6.5 6.5 6.5 6.5 6.5 6.5 6.5 6.5 6.5 6.5 6.5 6.5 6.5 6.5 6.5 6.5 6.5 6.5 6.5 6.5 6.5 6.5 6.5 6.5 6.5 6.5 6.9 7.2 7.5 7.7 8.1
7.4 8.2 9.2 7.4 5.6 8.1 6.6 6.5 6.5 6.6 6.6 6.5 6.5 6.5 6.5 6.5 6.5 6.5 6.5 6.5 6.5 6.5 6.5 6.5 6.5 6.5 6.5 6.6 6.5 6.5 6.5 6.5 6.5 6.5 6.5 6.5 6.5 6.5 6.5 6.5 6.5 6.5 7.2 7.7 8.1
8.7 8.0 9.3 7.0 7.3 7.6 6.5 6.5 6.5 7.2 7.1 6.5 6.5 6.5 6.5 6.5 6.5 6.5 6.5 6.5 6.5 6.5 6.5 6.5 6.5 6.5 6.5 6.5 6.5 6.5 6.5 6.5 6.5 6.5 6.5 6.5 6.5 6.5 6.5 6.5 6.5 6.5 7.4 7.8 8.1
8.8 6.5 9.0 7.5 6.8 6.8 6.5 6.5 7.0 6.7 7.3 6.5 6.5 6.5 6.5 6.5 6.5 6.5 6.5 6.5 7.0 6.6 6.5 6.5 6.5 6.5 6.5 6.5 6.5 6.5 6.5 6.5 6.5 6.5 6.5 6.5 6.5 6.5 6.5 6.5 6.8 7.0 7.5 8.0 8.3
8.0 8.0 9.5 9.1 6.5 6.5 6.6 6.5 6.8 6.5 6.5 6.5 6.5 6.5 6.5 6.5 6.5 6.5 6.5 6.7 7.0 6.5 6.5 6.5 6.5 6.5 6.5 6.5 6.5 6.5 6.5 6.5 6.5 6.5 6.5 6.5 6.5 6.5 6.5 6.5 7.1 7.1 7.6 7.9 8.2
8.2 6.5 7.9 8.4 7.9 6.6 6.5 6.5 6.5 7.2 6.7 6.9 6.5 6.7 6.5 6.5 6.5 6.5 6.5 6.5 7.1 6.8 6.6 6.7 6.5 6.5 6.5 6.5 6.5 6.5 6.5 6.5 6.5 6.5 6.5 6.5 6.5 6.5 6.5 6.5 6.7 7.3 7.7 8.0 8.2
8.3 6.9 7.5 6.5 6.7 6.5 6.6 6.5 6.5 6.5 6.9 7.0 6.5 6.5 6.5 6.5 6.5 6.5 6.5 6.5 6.6 6.9 6.5 6.5 6.5 6.5 6.5 6.5 6.5 6.5 6.5 6.5 6.5 6.5 6.5 6.5 6.5 6.5 6.5 6.5 6.9 7.5 7.8 7.8 8.0
7.4 7.4 8.1 7.3 7.3 6.6 6.5 6.5 6.5 6.5 6.5 6.5 6.5 6.5 6.5 6.5 6.5 6.5 6.5 6.5 6.5 6.5 6.5 6.5 6.5 6.5 6.5 6.5 6.5 6.5 6.5 6.5 6.5 6.5 6.5 6.5 6.5 6.5 6.9 7.2 7.2 7.5 7.7 7.7 7.9
9.0 8.8 7.8 7.1 6.7 6.5 6.5 6.5 6.5 6.7 6.9 7.1 6.7 6.5 6.5 6.5 7.4 7.5 7.5 7.1 6.7 6.5 6.5 6.5 6.5 6.5 6.5 6.5 6.5 6.5 6.5 6.5 6.5 6.5 6.5 6.5 6.5 6.5 6.5 6.5 7.1 7.4 7.7 7.8 8.0
Wind_Speed
22 22 23 22 22 21 20 20 20 22 21 22 23 22 21 21 22 10 12 6 8 10 9 7 8 10 9 9 7 4 8 12 15 13 11 15 12 11 4 10 8 4 5 16 19
22 21 21 20 20 20 20 20 21 22 22 22 23 23 23 20 17 14 11 4 11 11 11 11 12 12 12 12 7 10 11 13 8 10 10 19 15 15 11 12 8 8 11 20 18
20 21 21 20 22 22 22 22 22 22 23 22 22 22 23 21 9 5 5 14 13 13 11 8 8 13 15 10 9 11 11 4 6 8 11 19 15 14 13 15 13 17 19 18 16
20 22 22 23 22 23 23 23 23 23 22 22 21 21 24 8 4 3 10 12 16 10 12 11 12 14 16 13 12 11 6 6 8 7 14 17 14 11 10 6 13 20 19 16 14
21 22 22 24 24 25 25 25 24 24 23 21 18 17 10 7 9 5 5 16 16 12 14 14 14 14 15 15 13 14 11 6 5 11 13 14 13 9 7 10 18 20 20 18 14
25 25 25 26 27 28 28 29 28 27 24 21 17 13 6 8 3 1 10 13 13 14 11 11 10 10 11 11 17 8 10 10 10 12 11 15 12 13 7 16 17 17 17 16 15
27 27 28 28 29 31 33 33 33 29 25 20 16 8 8 13 1 3 9 8 10 10 10 9 5 12 9 10 6 13 11 10 12 14 7 12 12 7 14 11 15 14 13 15 14
27 27 28 31 31 32 35 36 33 26 19 11 8 11 8 4 6 10 9 8 6 6 6 7 4 5 8 11 10 13 14 15 12 14 8 9 16 11 15 14 13 14 13 13 11
29 30 30 30 32 34 38 36 28 5 1 12 9 7 6 4 6 12 13 11 11 9 5 5 7 7 9 15 12 15 15 20 12 13 10 14 9 16 15 14 14 13 12 13 12
30 32 32 32 33 38 38 31 6 7 7 4 1 6 7 2 1 4 12 12 11 13 9 9 9 11 13 15 16 19 17 19 14 13 14 16 5 14 14 15 16 14 14 14 14
31 32 34 33 34 38 23 6 4 6 5 7 3 7 1 7 5 8 13 14 13 17 15 16 12 18 20 19 14 15 18 16 16 13 17 18 12 13 15 14 17 16 16 16 15
29 30 32 34 35 32 12 4 4 5 9 11 16 19 18 8 4 9 15 15 17 20 18 10 19 18 17 17 13 14 20 18 7 8 14 14 13 12 14 16 16 17 17 17 15
28 29 28 33 36 10 8 4 7 6 6 5 7 10 9 13 6 13 20 20 19 21 22 17 12 15 13 16 17 16 18 16 14 12 14 10 18 14 14 13 15 15 15 16 17
29 28 30 31 12 8 4 5 12 3 5 2 3 2 7 8 8 14 19 21 13 22 19 16 9 18 19 20 18 17 15 14 14 17 13 18 13 21 18 18 17 18 18 18 16
30 32 28 21 9 5 6 13 12 4 3 4 4 3 2 12 2 15 17 21 19 15 14 14 17 17 23 23 21 16 15 15 15 17 13 15 13 13 23 18 21 22 22 19 19
35 34 27 2 4 7 12 16 4 4 3 2 4 3 2 8 10 4 15 21 18 16 18 16 7 17 16 19 19 10 14 12 12 13 12 15 16 17 15 22 24 23 23 23 21
37 32 8 5 6 14 12 4 4 4 6 5 6 7 9 6 9 10 18 24 18 19 17 18 13 11 12 17 17 19 20 8 10 10 9 18 14 17 14 20 24 24 25 25 23
36 15 5 6 11 8 5 5 5 3 3 7 9 13 4 3 8 18 17 21 27 21 14 18 17 19 17 22 15 26 23 10 17 15 15 8 10 10 15 13 16 18 20 21 22
25 4 7 10 9 5 5 2 2 3 5 10 12 6 0 2 4 16 19 20 25 22 16 18 19 21 20 15 17 23 20 22 4 4 12 12 11 5 9 16 17 16 15 22 24
6 4 10 18 8 4 2 2 2 5 9 8 5 5 5 7 5 6 15 14 22 23 18 6 12 13 16 18 21 23 20 18 12 9 11 9 15 9 17 21 19 18 19 20 22
4 2 10 19 4 1 1 2 6 7 9 6 4 7 6 7 11 6 4 9 16 20 19 12 8 12 21 21 23 11 19 17 16 11 13 9 7 12 14 12 19 19 19 20 22
5 2 10 10 2 2 4 6 8 11 6 4 6 8 8 9 8 5 3 7 10 13 26 22 9 8 27 19 21 22 23 26 11 16 9 10 4 5 6 5 10 15 16 18 19
4 4 5 6 4 5 4 6 3 8 9 7 7 9 10 5 6 7 7 8 12 7 10 22 13 12 7 15 14 24 23 26 20 13 17 9 6 5 6 6 7 11 14 16 17
3 3 4 5 5 5 7 8 10 5 2 6 4 5 11 8 7 8 12 6 17 12 16 9 18 22 16 17 15 19 24 22 24 13 15 18 14 9 10 9 9 11 13 16 18
5 3 3 4 6 8 4 7 9 10 5 6 1 11 10 4 9 5 8 12 9 13 10 4 18 19 25 15 12 18 23 25 26 25 20 17 21 16 15 14 12 12 14 16 19
3 4 5 5 7 7 6 8 8 12 6 6 11 14 11 7 5 10 12 4 5 13 11 10 9 17 16 21 14 18 20 25 27 26 25 21 18 17 16 11 13 15 18 19 20
4 2 3 4 6 6 4 7 10 11 6 8 14 14 11 9 18 19 16 13 10 7 11 7 7 5 16 20 22 19 17 20 25 25 24 21 14 13 14 15 16 18 19 21 21
Wind_Direction
355 352 353 349 350 347 343 340 337 334 335 334 334 330 327 322 310 268 247 247 182 223 207 173 194 201 210 196 205 211 223 216 211 200 164 156 170 189 115 148 166 145 177 149 153
355 352 348 346 342 339 337 335 333 328 328 330 329 326 326 324 306 268 245 250 219 178 198 193 190 187 203 203 191 212 223 221 222 193 165 170 181 164 171 162 161 133 114 140 151
352 347 344 339 336 331 331 329 322 321 322 325 325 323 322 317 280 219 125 211 203 190 222 215 213 194 215 199 184 198 223 214 185 185 175 172 185 173 184 184 163 153 140 147 151
351 349 346 340 335 329 324 320 315 314 314 316 319 321 319 281 261 108 322 207 182 192 194 194 194 195 211 200 183 198 201 206 150 175 165 173 159 190 189 76 134 140 141 147 127
351 345 346 338 335 329 325 319 313 309 308 308 313 320 321 236 254 11 87 146 163 184 190 191 194 202 210 200 186 229 173 151 187 172 172 145 171 130 123 133 122 137 141 140 132
344 343 338 335 331 327 323 318 311 306 302 299 299 303 259 249 55 12 141 152 165 182 192 204 210 207 210 200 201 183 172 137 157 153 159 156 140 154 127 129 142 153 146 137 134
346 343 337 334 331 326 321 315 308 300 292 288 281 227 243 249 206 56 171 171 180 190 192 207 228 196 161 160 149 158 155 148 165 167 158 149 156 173 136 140 136 140 146 136 132
343 340 340 333 330 327 320 312 307 297 286 268 211 188 251 202 248 240 198 177 194 201 232 185 200 202 225 116 155 179 186 181 165 174 157 226 175 148 148 144 142 147 149 137 144
344 341 338 336 332 329 322 316 310 284 283 143 158 219 249 134 222 220 207 188 172 183 177 156 199 183 166 174 172 191 196 203 160 202 158 210 138 150 161 158 152 155 153 151 152
342 340 338 335 334 333 326 312 283 183 154 187 197 218 236 182 199 200 197 195 170 166 153 181 191 190 198 197 196 192 224 201 186 181 194 190 179 158 171 168 161 163 165 164 167
342 339 336 335 336 334 329 293 237 192 225 248 161 286 275 339 223 197 180 186 184 183 183 188 200 204 196 209 225 199 212 194 204 160 196 195 183 177 172 185 171 174 175 177 173
341 337 335 333 333 332 310 43 48 318 299 254 247 256 261 292 272 201 182 184 188 189 188 177 215 203 208 208 214 203 208 202 162 179 216 193 202 184 184 192 189 185 184 180 171
342 338 335 329 325 310 329 45 327 307 267 279 237 249 235 200 237 200 192 198 196 198 192 203 200 210 199 192 200 208 211 194 186 177 214 196 214 199 194 198 198 199 197 193 186
342 339 333 332 298 335 262 327 322 259 276 110 184 219 194 211 242 219 201 191 199 206 201 224 156 197 197 200 201 200 210 196 195 184 202 204 220 200 195 202 200 202 206 202 190
342 336 332 325 295 292 338 319 312 218 270 22 112 57 165 208 45 191 195 205 204 199 186 196 190 193 203 200 198 220 185 194 194 209 200 195 239 210 198 199 207 210 207 207 199
339 334 331 195 258 297 314 307 249 238 238 65 61 19 165 216 243 136 183 210 221 199 219 215 219 208 210 203 195 195 180 187 206 219 221 215 215 226 193 206 212 211 207 204 200
336 334 337 311 321 317 307 267 229 236 341 21 342 332 320 250 218 219 195 194 192 193 201 207 195 197 219 188 192 186 168 168 200 210 223 216 209 233 180 208 216 210 207 202 195
336 331 358 355 330 307 275 228 235 14 355 346 324 307 264 317 220 205 206 202 211 207 191 198 210 192 190 202 184 195 192 196 204 206 208 157 230 226 225 217 218 218 210 195 195
333 345 5 357 344 319 277 221 348 19 5 335 317 296 227 4 288 208 219 219 207 210 226 204 215 186 183 198 190 197 209 210 221 332 215 189 223 263 217 214 200 202 203 196 192
327 310 19 346 335 296 247 292 321 360 338 333 322 355 319 358 306 223 209 222 222 209 226 206 222 188 186 196 207 198 199 210 212 193 208 213 222 215 200 213 206 208 202 196 191
324 315 11 343 290 271 3 330 324 339 344 327 337 313 327 339 330 268 254 225 225 207 222 223 240 172 175 206 193 191 200 211 210 221 217 210 220 207 223 200 208 209 200 187 186
323 36 1 333 31 29 20 348 336 322 346 309 290 270 288 322 307 285 310 319 10 294 207 219 224 208 206 207 216 201 208 201 203 203 226 228 202 193 220 184 210 210 200 190 184
3 321 7 329 41 19 5 7 357 355 358 357 316 4 323 290 308 301 328 335 359 345 242 210 222 219 204 208 204 217 212 208 215 195 211 196 193 158 178 182 189 189 181 176 177
348 346 356 29 54 8 351 4 358 7 339 354 6 352 329 292 244 287 314 326 336 352 315 269 218 223 220 213 208 214 217 215 215 214 208 216 210 193 207 195 176 177 174 174 177
7 47 357 359 2 349 7 351 356 5 332 340 204 4 341 284 295 300 3 327 317 10 353 246 220 222 230 249 232 209 215 206 215 217 220 212 222 208 208 204 182 171 169 171 177
30 357 338 304 328 336 13 16 348 346 313 330 338 333 320 312 27 317 326 317 315 331 353 340 243 230 231 236 236 225 217 210 218 215 223 226 217 223 200 177 166 169 173 179 184
20 352 317 320 338 329 20 341 328 335 311 320 330 315 309 342 321 297 280 257 258 302 329 310 341 240 226 222 232 238 231 224 219 219 219 220 224 174 181 183 180 177 181 184 187